Regional Weather Roundup
Issued by NWS Nashville, TN

Home | Current Version | Previous Version | Text Only | Print | Product List | Glossary On
Versions: 1 2 3 4 5 6 7 8 9 10 11 12 13 14 15 16 17 18 19 20 21 22 23 24 25 26 27 28 29 30 31 32 33 34 35 36 37 38 39 40 41 42 43 44 45 46 47 48 49 50
000
ASUS44 KOHX 220415
RWROHX
MIDDLE TENNESSEE HOURLY WEATHER ROUNDUP
NATIONAL WEATHER SERVICE NASHVILLE TN
1100 PM CDT THU AUG 21 2014

NOTE: "FAIR" INDICATES FEW OR NO CLOUDS BELOW 12,000 FEET WITH
NO SIGNIFICANT WEATHER AND/OR OBSTRUCTIONS TO VISIBILITY.

* THESE REPORTS ARE NOT UNDER NWS QUALITY CONTROL AND MAY NOT
  REPORT WEATHER SUCH AS PRECIPITATION AND FOG.


TNZ005>011-023>034-057-059-062>066-078-080-220500
...NORTHERN MIDDLE TENNESSEE...

CITY           SKY/WX    TMP DP  RH WIND       PRES   REMARKS
CLARKSVILLE    PTCLDY    78  72  81 SW5       30.06R
CROSSVILLE     CLEAR     74  68  81 CALM      30.18R
GALLATIN         N/A     78  75  90 CALM      30.09R
DICKSON        PTCLDY    79  72  78 SW5       30.09R
LEBANON        CLEAR     78  71  79 SW5       30.07R
LIVINGSTON     CLEAR     76  70  82 SW5       30.13R
NASHVILLE      CLEAR     80  73  79 CALM      30.09R
WEST NASHVILLE   N/A     79  79 100 CALM      30.07R
PORTLAND       CLEAR     79  72  78 S6        30.07S
SMYRNA         CLEAR     76  73  90 CALM      30.10R
SPARTA         CLEAR     73  72  94 CALM      30.12R
$$
TNZ056-058-060-061-075>077-079-093>097-220500
...SOUTHERN MIDDLE TENNESSEE...

CITY           SKY/WX    TMP DP  RH WIND       PRES   REMARKS
COLUMBIA       CLEAR     77  77 100 CALM      30.09R
FAYETTEVILLE   CLEAR     75  70  83 CALM      30.12S
LEWISBURG      CLEAR     75  71  87 CALM      30.09S
MCMINNVILLE    CLEAR     73  73 100 CALM      30.13R
MURFREESBORO   CLEAR     80  71  74 CALM      30.09R
SHELBYVILLE    CLEAR     75  73  94 CALM      30.12R
TULLAHOMA      CLEAR     73  70  88 CALM      30.14R
WINCHESTER     CLEAR     73  72  94 CALM      30.13R
$$


...KEY TO REMARKS...
VSB - VISIBILITY IN MILES
WCI - WIND CHILL INDEX
HX  - HEAT INDEX



USA.gov is the U.S. government's official web portal to all federal, state and local government web resources and services.